Wind_Speed
6 5 5 3 2 4 0 4 2 3 3 2 2 0 2 2 1 2 1 1 0 1 1 1 3 4 3 3 6 5 3 3 4 4 3 2 15 23 18 17 16 14 15 14 13 12 11 11 10 10 9 7 8 10 11 10 11 12 13 12 12 12 13 14 12 12 12 13 14 15 14 15 15 15 14 15 14 15 15 15 16 16 16 16 16 16 16 16 15 15 15 14 15 15 15 14 15
6 6 5 0 3 3 1 3 3 3 5 2 3 2 2 1 1 4 5 3 2 2 2 4 6 5 4 4 6 5 3 2 3 3 1 9 19 17 16 19 17 16 17 16 14 13 12 12 11 10 9 9 9 11 11 11 12 13 12 11 11 11 12 14 13 12 13 14 14 14 14 14 15 14 14 14 14 15 15 15 15 16 16 16 16 16 16 16 15 15 15 14 14 14 14 14 14
6 5 3 3 2 2 1 3 2 1 4 1 4 3 1 2 5 6 6 5 5 4 3 3 4 3 3 4 3 3 1 1 4 2 5 16 15 13 19 19 17 17 17 17 15 13 12 12 11 9 9 10 10 11 12 12 13 13 12 12 11 11 11 13 13 12 13 14 14 13 14 14 14 13 14 14 14 14 15 15 15 15 15 15 15 15 15 15 15 14 14 14 14 13 13 13 13
6 5 2 4 1 3 4 4 2 3 1 2 3 5 2 5 7 5 5 5 5 4 2 2 3 1 2 4 1 2 2 1 2 2 8 14 11 16 21 19 17 17 17 17 15 13 13 13 10 9 9 10 11 11 12 12 13 13 13 13 12 11 11 12 13 12 11 12 13 13 13 13 13 13 13 13 14 14 14 14 15 14 14 14 14 15 14 14 14 13 13 13 13 13 13 13 12
4 3 2 4 1 1 3 3 2 3 2 3 1 5 4 5 6 5 3 3 3 1 0 2 2 1 1 3 1 1 2 2 2 4 10 11 14 20 20 18 18 17 18 17 15 16 16 14 11 10 10 10 11 11 12 13 13 13 13 13 12 11 11 12 13 12 11 13 12 12 13 12 12 12 12 12 13 14 13 14 15 14 14 14 14 14 13 13 13 13 13 12 13 12 13 13 12
1 3 3 2 2 1 3 1 0 0 4 4 2 5 5 6 6 6 4 1 3 2 3 1 3 2 2 1 0 3 3 3 4 6 12 14 17 21 19 19 17 17 18 17 17 18 17 15 13 11 11 11 11 12 12 13 13 13 12 12 11 11 11 12 13 12 12 13 12 12 12 11 11 11 12 13 13 13 13 13 14 13 13 13 13 13 12 12 12 12 12 12 11 12 13 13 12
2 2 4 4 2 2 4 2 3 3 3 4 4 4 5 6 6 7 5 1 1 1 3 1 2 6 2 2 1 2 3 5 6 10 15 17 19 21 20 18 17 17 17 18 18 18 17 15 15 12 11 11 11 12 12 12 13 12 12 11 10 10 11 12 12 12 12 12 12 11 11 11 11 11 12 13 13 13 13 13 13 13 13 13 13 12 12 11 11 11 11 11 10 12 13 12 12
3 1 1 4 2 3 4 1 3 3 2 3 4 5 5 7 6 7 5 3 2 1 2 0 2 5 0 1 2 1 2 7 8 13 18 18 20 21 19 18 17 18 18 19 19 18 16 15 14 12 11 12 12 12 11 12 12 11 11 10 11 11 12 12 12 11 12 12 11 10 10 9 9 9 10 10 11 12 12 11 11 12 12 12 12 12 11 11 11 10 10 9 9 11 12 12 12
5 2 0 4 2 2 3 2 3 3 3 4 4 4 3 5 4 6 5 1 1 3 3 3 1 3 1 2 0 3 2 6 10 15 19 20 22 21 19 17 17 18 18 19 19 18 16 14 14 12 11 11 12 12 11 11 11 10 10 11 12 12 12 11 11 11 11 11 9 9 9 7 7 8 8 8 10 10 11 11 11 11 11 12 11 11 10 11 10 10 9 8 9 11 11 11 11
4 3 1 2 2 2 3 2 2 2 4 5 4 4 4 5 4 3 4 2 1 5 4 4 2 3 3 2 1 2 2 9 15 18 20 22 22 21 19 16 16 17 19 20 19 18 16 14 13 12 12 11 11 11 11 11 11 10 10 11 12 13 12 10 10 11 11 10 8 8 8 6 7 8 8 8 8 9 9 9 10 10 11 10 10 10 10 10 9 9 8 6 8 10 10 10 10
2 3 2 3 3 1 2 3 3 3 5 4 3 3 4 5 5 2 2 3 1 3 3 1 3 3 3 1 2 2 4 14 19 21 22 23 22 21 19 16 15 16 18 20 19 18 16 14 13 12 12 11 11 10 11 11 11 11 10 10 10 12 12 11 10 10 11 10 8 8 7 8 9 9 8 8 8 8 8 9 10 11 10 9 9 9 8 8 8 8 7 6 7 8 8 8 8
1 3 4 4 2 2 3 2 4 5 6 3 2 3 4 6 5 3 3 4 2 2 3 3 4 5 4 1 2 2 8 17 18 23 24 23 23 21 18 16 15 15 16 18 19 18 16 15 14 13 12 11 10 10 11 10 11 10 10 9 9 10 11 11 10 11 11 10 9 8 8 8 8 8 7 7 8 8 9 10 10 10 8 8 8 7 7 6 6 7 6 6 6 5 6 6 7
2 2 4 3 3 2 3 2 4 3 4 3 3 2 5 6 3 6 6 4 4 4 5 6 5 5 3 2 2 1 9 16 17 23 25 24 23 21 18 16 15 14 15 16 17 17 16 15 14 13 12 11 10 11 11 10 9 8 8 8 8 8 8 9 10 11 12 10 9 9 7 7 7 7 7 7 6 7 10 10 9 9 8 8 7 7 7 7 6 6 6 5 4 3 3 3 4
2 3 4 2 1 2 4 1 3 1 3 5 2 3 4 3 4 7 7 5 6 5 2 5 7 4 2 1 2 2 9 17 18 23 24 23 23 21 18 16 15 15 15 15 15 16 16 15 14 13 12 11 11 11 10 8 7 6 6 6 6 7 7 8 8 10 10 10 8 7 6 5 6 6 6 6 5 6 8 8 8 7 7 7 8 8 8 7 7 6 6 4 3 2 1 1 1
2 2 4 4 2 1 3 1 1 3 4 4 3 5 4 1 4 6 6 7 7 5 1 3 5 2 3 5 3 6 13 19 21 23 23 23 22 21 19 17 16 15 15 14 14 15 15 14 14 13 12 12 11 11 9 7 6 5 5 5 6 6 6 7 7 8 9 8 7 6 5 5 5 5 5 4 4 4 5 6 7 7 7 8 8 9 9 8 8 7 5 4 3 2 1 1 1
2 4 4 3 1 1 3 1 2 3 4 5 2 4 6 2 3 5 4 5 2 2 2 2 3 0 5 7 4 11 19 21 23 23 22 22 21 20 18 17 17 15 15 14 14 14 14 14 14 14 13 12 12 11 10 8 7 5 5 6 6 6 7 7 7 8 8 8 8 6 5 5 6 5 4 3 3 3 3 4 6 7 8 8 8 9 9 9 8 7 6 5 4 3 3 3 2
2 4 4 1 2 2 3 4 4 3 5 5 3 3 8 3 1 2 0 5 4 2 1 3 2 1 5 3 2 14 23 23 25 22 21 22 19 18 16 15 16 15 15 15 14 14 13 13 14 15 14 13 13 12 11 9 8 7 7 7 6 7 8 7 5 6 8 9 8 7 5 5 6 6 5 3 3 2 1 3 5 6 6 7 7 8 8 8 8 7 7 6 6 5 5 4 4
3 3 3 1 3 3 5 7 6 3 3 5 5 5 9 5 2 2 2 4 3 2 3 3 2 2 2 2 4 19 25 25 26 22 22 22 20 18 16 16 16 16 16 16 15 15 14 14 14 16 15 14 13 12 11 9 8 8 8 8 8 8 8 7 5 5 7 9 9 8 6 5 5 6 5 4 3 2 1 2 4 4 5 5 6 6 6 6 6 6 6 6 6 6 5 5 5
3 3 1 3 4 4 5 7 6 3 2 4 5 4 6 6 5 4 2 1 2 4 4 3 3 3 2 3 15 23 24 26 25 23 23 23 21 19 18 17 17 17 17 18 17 16 15 14 15 16 15 15 13 12 11 9 9 9 9 8 8 8 7 6 6 6 6 8 9 8 7 5 4 5 5 5 3 2 0 1 2 3 4 4 4 4 4 4 4 5 5 5 5 5 5 5 5
1 2 0 4 4 4 4 5 7 5 2 5 4 2 3 4 5 4 4 3 2 5 6 2 5 5 3 7 17 22 23 24 23 24 23 22 22 20 19 18 18 19 20 20 19 18 17 15 15 16 15 15 14 13 12 11 10 10 10 9 8 8 7 7 7 7 7 8 8 8 7 6 5 4 4 4 3 2 1 0 1 2 2 2 2 2 2 2 2 3 3 4 4 4 5 5 5
1 1 2 3 1 2 4 5 6 5 2 5 4 4 3 4 3 3 7 6 4 7 8 9 9 9 8 8 15 20 21 20 21 23 23 22 20 20 19 18 18 19 21 21 20 19 18 17 16 16 16 15 14 14 13 12 11 11 10 9 9 8 8 8 8 7 8 9 9 9 8 7 5 4 4 3 3 2 2 1 0 1 1 0 0 0 1 2 2 3 3 4 5 5 6 7 7
2 3 3 3 1 2 4 2 4 4 1 3 6 5 5 3 2 4 10 8 6 6 8 10 9 10 13 13 16 19 18 18 19 21 23 24 21 19 19 18 17 18 20 22 21 21 19 18 17 17 17 16 15 14 13 13 12 12 11 10 10 9 9 9 9 8 8 9 9 8 7 6 5 4 3 3 3 3 2 1 1 0 0 1 1 2 2 3 3 4 4 5 6 7 8 8 9
1 4 4 4 3 3 4 2 3 4 5 5 6 4 4 6 3 4 9 9 5 3 6 8 7 10 16 17 17 16 16 18 19 21 24 26 23 20 20 20 20 20 22 23 23 22 20 20 19 18 18 17 16 15 14 14 13 12 11 11 10 10 10 9 9 8 7 8 7 7 6 5 4 3 2 2 2 2 2 2 2 1 1 2 2 2 2 3 4 4 5 6 7 8 9 9 9
2 3 5 6 3 4 4 3 3 4 6 6 4 2 5 9 6 2 7 10 3 5 4 6 9 13 15 15 15 16 18 19 20 22 24 26 25 23 22 22 22 22 22 24 25 24 23 22 21 20 19 18 17 16 15 14 13 12 12 11 11 11 10 9 8 7 7 7 7 6 5 4 3 2 1 1 1 1 1 2 2 2 2 2 2 2 3 4 5 5 6 7 8 9 9 9 10
1 3 6 8 6 6 6 4 3 4 6 3 4 4 5 7 4 2 8 10 4 4 1 6 10 13 12 12 13 14 16 18 20 21 23 24 26 24 23 22 22 22 22 24 25 25 25 23 22 21 20 19 18 17 16 15 14 13 13 12 11 11 11 9 8 8 7 7 6 6 5 4 3 2 1 1 0 0 1 2 2 2 2 3 3 4 5 6 7 7 8 9 9 10 10 11 11
1 3 7 9 10 9 6 4 2 2 3 4 6 4 2 1 1 3 8 7 3 3 4 6 9 10 10 10 12 13 14 17 19 20 22 23 23 23 23 23 22 23 24 24 25 27 26 24 23 22 21 20 19 18 17 16 15 14 14 13 12 12 11 10 9 9 9 8 7 5 4 3 2 2 1 1 1 1 2 3 4 5 4 5 6 6 7 8 9 9 10 10 11 11 11 12 12
3 5 8 9 10 9 3 3 3 0 2 4 8 4 3 3 1 4 5 2 5 7 5 5 8 10 11 9 10 14 15 17 20 19 19 21 22 24 24 24 24 25 25 24 25 27 27 26 25 23 22 20 19 19 18 17 15 14 14 13 13 12 11 11 10 10 10 9 8 7 5 4 4 3 3 3 3 3 3 4 5 6 6 6 7 7 8 9 10 10 11 12 12 12 13 13 14
6 6 10 10 8 7 3 3 4 1 1 4 7 2 3 2 1 7 4 1 3 7 6 5 7 8 9 10 9 11 14 17 20 19 19 21 22 24 24 25 26 26 25 26 26 27 27 27 26 24 23 21 21 20 19 17 16 14 14 13 13 12 11 11 11 10 9 9 8 8 7 5 4 4 4 4 4 4 5 6 6 7 6 6 7 8 8 9 10 10 12 13 14 14 14 14 15
6 4 8 11 8 7 5 3 3 3 2 4 6 1 3 3 6 8 3 1 3 6 6 5 6 7 7 8 7 8 12 16 18 20 22 23 23 24 25 26 27 27 27 27 27 27 27 27 26 25 24 23 22 22 20 19 17 15 14 14 13 12 12 12 11 10 9 8 7 7 6 5 5 4 5 5 6 7 7 8 8 8 8 8 8 8 8 9 11 12 13 15 15 14 15 16 17
6 3 2 7 7 6 5 1 2 4 3 2 4 2 5 9 11 6 2 5 7 6 6 6 6 5 5 7 6 7 10 15 18 21 24 23 24 25 26 27 28 28 28 28 28 27 27 27 27 26 25 24 23 23 22 20 18 17 15 15 14 13 13 12 11 10 9 8 8 7 7 6 6 5 6 6 7 8 9 9 9 9 9 10 9 9 10 10 11 12 13 15 15 15 16 18 20
5 4 2 2 2 5 7 2 4 5 2 1 3 4 6 9 11 6 4 6 8 7 7 7 6 5 5 6 7 7 9 16 19 21 22 23 24 25 26 27 28 29 29 28 29 28 27 27 27 27 26 25 24 24 23 21 20 18 17 16 16 15 14 13 12 11 10 9 9 8 8 8 7 7 7 7 8 9 10 9 8 8 9 10 10 10 9 9 11 14 15 15 16 16 17 19 19
2 3 4 2 2 5 8 3 5 4 1 2 4 4 6 8 9 5 4 6 7 8 7 7 7 6 6 6 7 7 8 13 17 19 21 23 24 24 27 28 28 30 30 30 30 29 28 28 28 28 27 27 26 25 23 22 21 20 19 17 17 17 16 15 14 13 13 11 10 9 9 9 9 8 8 8 9 9 8 8 8 11 12 12 11 11 10 11 15 17 15 14 17 17 18 18 18
1 1 4 3 2 4 5 3 1 2 1 1 2 3 3 5 6 5 1 6 7 7 7 7 7 7 7 6 7 7 6 9 12 18 23 24 25 26 27 28 29 30 31 31 31 30 30 29 30 29 29 28 26 26 25 23 22 21 21 19 19 19 18 17 15 14 14 13 11 10 9 10 10 9 9 10 10 10 9 9 12 13 12 12 12 12 13 14 15 15 14 13 15 16 16 18 18
4 1 3 4 3 3 3 4 2 2 2 2 3 4 6 7 5 6 2 5 6 7 8 7 7 7 7 7 6 6 7 7 10 19 25 26 27 27 27 27 28 30 31 32 32 32 31 30 30 30 29 29 27 26 25 25 24 23 22 22 21 20 20 18 16 16 15 14 13 12 11 10 9 8 8 9 10 10 10 12 12 9 8 9 9 10 11 11 12 13 13 12 12 14 16 18 21
4 3 3 3 4 4 3 5 3 3 3 4 5 5 9 12 9 5 1 4 6 7 6 5 7 7 7 7 6 7 8 8 13 21 25 26 27 27 28 27 27 28 30 31 32 32 31 31 30 30 30 29 28 28 27 26 25 25 25 25 24 22 21 19 18 18 16 15 14 14 13 11 10 9 9 11 11 12 12 12 11 9 9 9 8 9 9 9 11 11 12 12 12 15 17 19 21
3 4 2 3 4 4 4 5 5 3 4 5 7 6 9 13 12 6 1 3 5 6 5 5 6 6 6 6 6 8 8 10 18 23 22 23 26 28 28 29 28 28 29 30 31 32 32 32 31 31 31 30 30 29 29 29 28 28 28 27 26 25 22 20 20 19 18 17 15 15 15 14 12 11 11 11 11 12 12 12 12 12 13 14 13 12 11 12 13 13 13 14 15 15 16 18 18
1 2 3 5 4 5 5 4 5 1 3 6 7 8 10 11 12 7 1 2 4 7 8 8 7 6 7 8 9 10 10 13 17 18 19 22 25 26 27 28 28 28 29 30 31 32 33 32 32 32 32 31 32 31 31 31 30 29 28 28 27 25 22 20 21 20 19 18 16 16 16 16 15 14 13 11 10 10 11 11 13 13 15 16 15 14 13 13 13 14 14 16 16 15 15 15 14
3 4 5 6 4 6 6 3 5 2 3 4 3 6 10 11 11 6 2 3 6 9 10 10 9 8 7 8 11 11 10 11 11 12 18 22 24 25 26 28 28 29 31 31 32 34 34 33 34 33 32 32 33 33 32 32 32 30 28 28 27 25 23 21 21 21 20 19 18 17 15 16 16 16 16 15 13 12 12 15 16 15 15 15 14 13 13 13 14 14 15 16 15 13 12 10 11
3 4 4 6 3 4 6 3 4 3 2 3 2 4 9 11 11 6 5 7 8 9 11 11 10 9 8 10 10 10 9 10 8 11 16 21 24 25 26 27 29 31 32 32 34 34 34 34 35 34 32 33 33 33 33 32 31 30 29 28 26 25 24 23 21 20 20 19 19 18 17 17 17 16 14 13 14 15 16 18 16 14 14 14 13 14 14 15 14 14 13 12 10 8 8 7 10
3 3 4 6 3 2 3 2 2 2 1 0 0 3 7 8 7 6 8 9 7 6 9 9 8 10 11 10 8 9 11 11 9 10 13 17 21 22 25 28 29 30 31 32 34 34 35 36 36 35 34 33 33 33 33 32 30 28 28 27 25 24 23 22 20 20 20 19 18 19 18 17 16 14 12 12 13 15 15 14 12 12 12 12 13 13 11 9 8 8 8 6 5 5 6 6 8
5 5 6 6 5 4 3 3 3 2 1 1 2 4 7 6 6 8 6 4 5 5 6 8 8 10 9 6 7 9 10 11 11 11 11 14 19 22 26 28 28 29 32 34 35 35 36 37 37 36 35 34 34 34 33 32 30 28 26 24 21 21 20 19 18 19 19 18 18 17 16 16 17 13 10 12 15 15 16 15 14 14 14 15 13 8 4 2 3 4 5 6 6 6 7 6 6
5 6 8 9 8 6 3 4 3 1 3 2 1 2 7 4 5 10 6 3 6 5 5 9 10 9 7 7 10 11 10 10 10 11 11 12 18 22 24 26 27 29 33 34 35 36 36 37 37 36 35 35 34 34 34 33 31 29 27 25 22 20 19 18 18 18 18 18 17 16 14 16 17 13 11 13 14 14 14 12 10 8 8 9 7 4 3 3 4 6 7 8 7 8 8 7 6
3 4 7 10 9 6 3 2 1 3 4 3 1 4 7 6 5 8 4 4 8 6 5 10 9 8 8 9 11 10 10 10 9 10 10 12 17 19 22 26 29 32 34 34 34 35 36 36 36 35 35 34 34 34 33 33 32 31 30 29 27 24 22 21 20 19 18 18 17 14 14 14 13 11 13 14 11 8 6 6 4 3 2 3 3 3 4 4 6 8 9 9 8 8 8 8 7
3 2 4 7 8 8 6 4 4 4 3 4 1 3 4 6 7 5 1 3 8 8 8 10 9 9 10 11 12 11 11 11 9 10 10 12 17 20 24 28 32 33 33 33 33 34 35 35 35 35 35 34 34 34 33 33 33 32 31 30 28 28 26 24 22 20 19 18 15 12 13 14 14 13 13 11 8 7 5 4 4 5 5 5 5 5 5 6 8 9 9 10 10 10 9 8 7
3 0 3 3 3 3 3 3 4 2 2 4 3 3 3 7 6 3 2 3 8 8 10 11 11 12 12 13 13 12 11 10 9 10 10 13 18 23 27 29 31 32 32 32 33 34 34 33 34 33 33 34 34 34 33 33 33 33 32 31 29 28 27 25 22 19 18 16 13 12 12 13 14 15 14 10 8 8 7 7 8 9 8 8 9 9 9 10 11 11 11 11 11 10 8 6 4
3 4 5 5 4 3 2 2 2 1 2 8 7 5 4 6 5 3 1 3 7 7 8 10 11 11 12 12 12 11 9 7 8 9 11 14 19 23 25 24 25 27 29 30 30 31 31 32 32 32 33 33 33 33 33 33 33 32 32 31 30 28 26 24 21 19 17 16 13 13 13 12 13 14 13 10 8 10 11 12 13 12 10 9 9 10 10 10 10 10 9 8 6 5 4 2 1
3 4 4 5 4 4 3 1 2 0 6 8 6 7 6 6 5 4 4 5 7 8 7 8 9 9 10 10 10 10 8 7 8 8 10 15 17 18 19 20 21 22 24 26 27 28 30 30 31 32 32 32 33 33 33 33 32 33 33 32 31 29 27 25 22 20 18 18 17 15 15 17 17 16 13 10 11 13 13 13 13 10 7 7 7 7 7 6 5 4 3 2 2 2 1 1 1
4 3 3 2 2 2 3 3 2 4 8 4 3 2 6 7 5 3 6 6 6 8 8 10 11 10 9 8 8 8 7 7 8 7 9 11 12 13 15 18 19 19 21 23 26 27 28 29 30 31 31 31 31 31 32 32 32 32 32 32 31 30 29 27 24 22 20 20 19 17 18 19 19 16 13 12 13 12 12 12 10 8 7 6 6 6 5 3 2 3 4 5 5 6 6 5 5
3 3 4 3 1 1 2 1 1 5 6 3 3 1 4 8 6 5 8 8 8 9 8 10 11 9 8 7 6 6 6 7 7 7 8 7 8 11 15 18 19 19 21 23 24 25 26 28 29 30 30 30 30 30 30 30 31 32 32 31 31 30 29 28 26 24 23 22 20 20 22 21 18 15 12 12 13 12 12 12 9 8 8 7 6 6 5 4 5 7 8 9 9 9 9 8 8
6 5 5 5 3 4 5 4 2 4 5 3 1 2 3 5 4 9 12 10 10 8 8 9 9 9 9 7 6 6 6 6 7 6 7 6 8 12 15 18 19 20 20 21 22 23 24 25 27 28 29 29 29 29 29 29 30 30 30 31 30 30 29 28 27 25 23 23 22 23 24 22 19 16 14 13 13 13 13 11 10 9 8 7 7 6 6 6 7 8 9 9 9 10 9 8 9
7 5 4 4 4 5 6 4 3 4 3 3 2 2 3 2 3 8 10 9 7 5 7 7 7 9 7 7 7 7 7 6 5 6 6 7 9 12 14 16 18 18 19 20 21 21 22 23 25 26 27 27 28 28 28 29 29 29 30 30 30 30 28 27 27 25 23 24 24 23 23 21 19 16 14 13 13 14 13 11 10 9 8 8 8 9 9 8 8 8 9 9 9 10 8 7 8
5 4 4 5 5 4 1 2 4 3 1 2 2 3 4 3 6 7 4 6 7 6 6 6 8 8 5 6 8 6 6 5 5 5 6 6 8 11 12 14 16 17 18 19 20 21 22 22 23 24 25 25 26 27 28 28 28 29 29 30 29 29 28 28 28 25 24 25 25 25 24 22 19 15 13 13 14 14 12 11 10 10 10 11 11 11 11 11 10 9 9 8 8 8 7 6 6
4 4 6 5 3 4 1 2 1 3 2 3 2 4 5 3 7 8 4 5 7 7 7 7 9 7 4 8 8 6 5 5 5 5 5 6 7 9 11 13 14 15 17 18 18 19 21 21 22 22 23 23 24 25 27 28 28 29 30 30 30 29 29 29 28 26 27 28 27 26 24 21 18 15 14 15 15 14 12 11 12 13 13 14 14 13 12 12 10 9 9 8 8 7 5 5 5
6 6 7 2 2 2 1 2 2 2 4 4 0 4 5 2 5 6 4 5 7 8 8 8 8 6 6 10 8 5 6 5 5 5 5 5 7 9 11 12 13 14 15 15 17 17 18 19 21 22 22 23 24 25 26 27 28 30 30 31 31 30 30 30 28 27 28 29 28 26 23 19 16 15 16 17 16 14 14 14 15 16 15 15 14 13 12 11 10 9 9 8 7 7 4 4 4
5 5 5 4 3 5 3 3 2 3 5 4 2 3 3 4 5 3 3 8 8 9 9 8 9 9 9 9 7 5 6 5 5 5 5 5 6 9 11 12 12 12 13 14 15 16 17 18 19 20 21 22 23 24 25 26 28 29 30 31 31 31 30 30 29 28 28 29 28 25 21 18 16 17 18 18 16 17 17 17 17 17 16 16 14 13 12 11 10 9 9 8 7 6 4 3 3
4 2 3 2 3 5 5 4 3 3 4 3 3 3 2 6 6 5 7 9 9 10 9 8 10 9 8 7 6 6 6 6 6 6 5 4 7 9 11 12 13 12 12 12 12 12 14 15 16 17 18 19 21 23 25 26 28 29 30 30 30 30 30 30 30 29 29 28 27 24 21 19 18 20 20 19 18 19 20 19 18 18 17 15 14 13 12 11 10 9 8 7 6 5 4 3 3
4 4 5 4 3 2 2 2 2 2 3 3 3 3 5 6 5 8 10 10 9 9 8 8 7 7 7 7 6 6 6 6 5 5 5 5 7 9 10 11 11 11 11 11 10 11 12 13 15 17 18 19 22 24 25 27 28 28 28 29 29 29 29 30 30 30 29 28 25 22 21 20 21 22 21 20 21 21 21 20 19 18 16 14 14 13 12 11 10 9 8 7 6 5 4 3 3
7 6 6 5 5 3 3 5 3 2 2 4 3 4 7 6 5 8 11 10 7 4 4 6 6 6 7 6 6 6 6 6 5 5 5 4 7 9 9 10 11 11 13 12 12 12 13 14 16 17 19 21 23 25 26 26 27 27 28 29 29 29 29 30 30 29 27 26 24 22 22 22 23 23 22 22 23 22 21 20 19 17 16 15 14 13 12 11 9 8 8 7 6 4 3 3 3
Wind_Direction
5 354 329 301 225 184 70 61 85 323 72 82 301 107 235 214 151 179 170 290 290 295 237 86 86 104 109 139 159 148 103 148 159 139 209 201 147 161 173 166 163 159 156 152 150 147 146 143 137 145 150 136 127 128 127 126 125 121 114 108 102 99 96 94 93 89 86 86 89 91 90 90 91 89 86 86 86 87 85 84 84 83 83 84 89 90 89 86 84 80 76 78 83 83 83 81 77
358 347 334 198 145 152 247 69 91 332 47 26 287 173 258 326 129 187 190 221 188 167 118 102 92 83 65 94 119 105 49 35 146 158 148 137 145 163 169 161 160 157 155 154 155 157 154 144 141 148 145 132 126 129 129 128 126 119 113 108 104 100 97 100 98 92 92 94 93 92 91 92 90 88 87 86 87 88 88 86 85 85 84 86 90 93 93 89 84 80 77 78 82 83 84 82 78
347 336 333 165 136 59 72 47 78 55 60 307 275 242 257 135 197 208 205 209 169 148 109 90 84 79 44 53 57 76 110 57 134 144 120 141 149 157 161 160 157 155 156 157 159 161 152 141 142 143 139 133 128 132 133 132 128 121 119 115 111 104 101 105 103 99 100 96 92 93 96 95 93 93 93 91 89 88 88 86 86 87 88 89 93 96 96 92 87 83 80 79 79 81 83 82 79
336 323 273 190 71 31 66 38 126 117 79 229 278 272 223 177 205 217 216 199 157 116 66 39 48 30 60 86 57 69 140 157 134 118 137 154 158 153 158 160 155 156 156 159 162 158 148 142 142 142 140 134 133 137 136 135 132 128 127 121 113 107 105 105 106 108 105 95 94 99 101 100 98 99 98 94 91 92 93 91 90 89 89 90 94 99 99 96 88 85 83 80 78 80 84 83 81
337 348 260 199 85 55 96 62 116 99 221 193 270 273 235 201 194 187 192 184 171 111 270 99 85 295 49 111 162 118 151 140 143 136 141 158 160 155 159 160 156 155 156 159 159 154 149 144 142 143 142 139 142 142 138 138 135 131 128 122 116 113 109 108 111 109 103 101 104 104 103 103 100 98 97 93 88 88 90 91 92 90 89 90 93 98 99 98 91 85 83 81 81 82 87 87 84
13 78 41 90 85 113 119 78 150 223 230 172 173 254 229 202 186 163 143 224 251 216 198 142 148 166 68 341 131 148 169 131 147 153 147 156 160 159 159 160 157 153 155 158 157 154 149 146 147 146 142 144 146 144 143 140 137 133 129 125 123 120 114 115 117 111 105 106 108 107 104 101 99 99 98 97 94 90 90 90 92 91 89 89 90 94 98 98 95 88 81 81 85 85 87 89 88
140 148 23 68 47 38 104 152 204 237 242 173 181 238 209 191 178 149 141 175 247 210 153 154 144 120 88 303 86 158 182 153 156 164 161 160 160 159 160 161 157 153 154 157 157 154 151 151 153 149 143 146 147 146 145 142 139 134 130 126 121 118 115 117 118 113 109 109 110 108 107 103 100 100 97 98 99 96 95 93 91 90 90 90 88 91 97 100 97 91 83 81 86 86 86 87 88
89 154 348 89 29 29 88 128 225 220 235 215 215 238 204 177 162 146 167 176 165 235 126 221 51 94 54 18 114 280 160 162 168 169 166 161 159 158 162 162 156 152 154 157 156 154 154 154 154 151 147 150 148 146 145 143 139 132 129 122 115 111 109 113 116 114 111 111 112 109 111 109 99 98 97 101 103 98 97 97 94 92 91 89 87 89 92 98 98 93 86 83 88 86 85 85 84
60 43 358 86 76 40 41 334 279 243 250 274 256 240 192 156 149 140 162 185 154 161 166 239 335 111 173 53 234 304 65 166 168 166 166 162 160 160 163 162 155 151 153 157 156 155 155 155 154 151 149 150 149 148 149 143 137 131 127 122 118 114 109 114 117 115 113 112 112 108 111 112 103 98 91 100 107 99 95 94 95 94 91 88 85 86 89 95 97 93 88 87 91 85 81 83 81
47 27 134 79 94 54 341 295 283 281 261 265 256 229 166 145 137 124 146 157 154 148 194 259 55 110 134 96 260 343 78 163 158 160 167 165 162 162 163 161 157 151 153 157 156 156 157 157 157 155 151 147 150 151 152 146 138 130 126 127 126 121 117 120 120 116 115 114 112 106 106 112 108 97 85 90 102 101 97 94 94 92 86 84 83 82 86 92 94 93 90 95 99 89 79 77 77
33 357 97 76 79 114 244 249 276 280 282 290 275 235 169 147 127 99 101 131 128 131 196 275 93 119 91 90 258 339 162 163 159 162 168 167 165 165 163 161 160 153 154 157 158 159 159 161 161 161 156 150 154 153 153 149 141 135 132 131 127 127 124 120 117 121 122 116 115 110 111 114 105 98 91 86 89 92 98 97 89 85 81 81 82 83 87 91 100 101 96 105 109 96 80 73 72
68 340 62 88 133 189 199 216 279 287 309 317 237 241 159 134 127 161 146 143 154 134 225 225 151 133 82 342 274 334 168 167 167 166 169 170 167 167 165 161 160 155 156 157 160 162 162 164 165 165 162 158 159 156 154 149 143 139 137 131 128 136 135 127 122 130 133 127 132 133 129 121 114 108 97 90 83 79 88 95 90 83 83 81 78 82 86 92 105 107 104 112 116 108 88 75 70
111 132 88 114 167 162 159 173 282 317 325 275 202 217 142 134 179 190 154 134 149 151 243 214 150 107 99 248 276 282 181 176 171 168 170 171 170 168 167 163 159 157 157 160 163 165 166 167 169 170 169 167 164 158 156 152 149 145 141 137 133 138 143 145 140 142 145 143 148 153 146 127 127 123 105 105 98 89 91 93 90 85 84 81 80 83 85 89 99 105 113 123 128 127 105 80 72
122 147 115 129 86 122 157 160 282 232 262 260 215 177 151 154 197 172 139 142 187 186 239 189 150 108 115 217 288 257 189 181 172 171 171 171 172 168 168 164 159 160 159 163 166 169 170 171 173 174 174 173 169 163 159 159 161 160 156 152 146 142 144 153 153 152 155 156 154 156 157 139 135 132 119 117 107 98 94 85 77 76 78 80 82 82 87 96 106 110 116 123 126 129 107 64 55
127 130 92 111 44 8 177 222 203 154 236 237 173 163 162 197 142 149 160 165 215 226 134 148 158 149 161 166 223 218 188 181 172 171 171 172 173 169 171 167 162 164 163 166 169 173 175 175 178 179 179 176 175 171 168 171 175 177 170 172 172 160 150 146 152 159 165 171 168 158 163 164 155 146 138 125 111 100 85 74 63 62 66 71 76 79 86 94 100 100 99 98 90 80 44 24 360
117 109 65 100 107 274 200 201 127 126 248 225 192 151 153 247 123 149 210 153 179 233 138 187 196 113 163 170 225 201 182 176 171 171 169 170 170 168 171 167 165 166 165 169 172 177 180 180 183 184 185 184 184 183 181 184 185 184 174 180 183 172 168 157 155 168 173 180 184 178 171 176 177 171 168 158 140 121 79 64 56 60 66 71 76 78 81 83 86 85 82 79 68 60 42 27 6
55 85 68 73 151 211 201 186 175 170 244 241 262 179 159 231 5 155 200 94 112 172 251 253 240 62 164 217 301 176 174 171 170 169 166 166 165 163 167 167 165 164 167 173 175 179 183 185 188 187 190 191 193 193 191 191 189 182 167 168 168 166 174 172 169 176 180 185 189 189 185 182 186 189 190 189 176 159 77 55 55 62 69 75 77 76 78 79 80 79 74 70 62 57 49 38 26
37 79 101 164 181 199 187 186 196 179 228 218 220 195 170 189 198 172 82 52 63 150 285 308 301 333 198 275 135 160 167 167 169 167 166 167 165 164 168 172 169 167 169 175 179 181 182 186 191 191 193 196 197 198 197 195 189 179 168 166 162 164 171 175 179 178 184 190 193 194 189 183 186 197 200 193 191 187 72 54 60 65 74 81 81 80 80 76 74 71 65 60 57 51 44 39 34
78 115 108 212 200 209 196 183 189 196 226 187 205 204 185 193 168 156 175 251 88 157 256 328 309 304 37 128 144 156 163 166 170 169 170 171 171 172 172 176 176 173 172 176 181 182 183 186 190 193 195 198 199 199 199 198 192 182 176 174 167 166 166 168 169 166 175 182 188 189 184 179 176 189 198 196 200 204 174 54 67 72 78 83 83 80 72 68 62 56 51 46 42 35 30 26 21
85 107 318 241 215 245 236 193 200 217 164 151 200 188 191 206 154 158 178 179 175 191 219 214 239 234 139 142 149 154 163 168 172 172 176 179 177 178 178 181 182 180 178 179 181 182 185 186 189 192 195 198 199 198 199 198 193 187 183 178 172 166 164 164 161 155 154 159 167 169 169 171 169 173 184 192 197 201 213 70 76 70 74 86 80 71 55 43 32 28 22 14 9 5 1 358 357
11 149 198 245 198 278 257 209 221 237 174 158 163 132 194 217 152 169 149 143 243 237 221 203 206 192 160 161 156 158 166 172 177 177 181 185 184 183 184 186 187 186 182 181 182 185 187 189 190 190 194 198 199 198 197 196 192 190 186 182 176 171 170 169 167 158 148 146 147 150 153 154 155 157 163 180 188 192 195 181 90 62 61 82 40 305 329 329 331 339 338 340 341 342 342 341 341
327 260 223 246 167 275 274 220 230 233 133 131 139 161 191 168 153 180 159 174 229 232 226 212 197 172 163 166 162 163 171 177 180 182 185 188 190 188 188 189 190 192 188 185 186 188 189 192 193 191 193 196 198 198 194 195 194 190 187 184 182 179 179 179 179 174 160 153 149 149 148 147 145 138 142 168 188 197 201 210 220 186 237 252 247 266 289 299 308 320 325 330 331 333 334 335 334
323 291 294 275 200 243 288 3 243 182 127 157 177 201 154 141 201 185 178 204 215 251 246 210 185 169 165 160 161 167 175 184 185 186 188 190 193 192 190 190 191 194 194 192 190 191 192 194 196 194 195 195 196 196 193 196 196 194 189 186 188 187 188 190 191 188 180 173 166 161 154 153 149 138 132 142 177 191 192 209 212 220 242 243 256 280 305 320 323 325 330 335 337 335 333 333 333
175 262 317 315 256 244 281 339 273 181 171 200 179 150 156 177 199 142 203 226 250 311 275 180 158 153 157 159 167 176 178 186 190 190 191 191 195 196 194 194 193 195 197 196 195 195 195 195 197 197 198 199 197 195 195 198 199 197 193 193 194 193 195 196 197 198 196 191 182 175 170 171 169 162 131 100 154 167 174 225 228 244 246 244 280 324 348 359 354 346 342 341 343 338 337 339 337
82 276 325 328 302 285 290 301 275 205 204 185 125 164 198 196 171 143 223 234 272 325 66 139 139 143 160 170 176 179 179 187 192 192 194 195 197 198 199 199 196 196 200 200 198 199 198 197 198 199 202 203 201 199 200 200 201 202 201 201 199 199 202 199 200 204 205 204 195 189 187 188 192 192 141 90 268 138 275 291 313 315 303 292 316 342 349 354 352 347 344 342 342 340 341 342 339
21 296 309 313 305 299 300 302 280 213 223 146 152 198 259 263 157 245 238 217 203 62 100 135 138 150 169 177 181 180 181 189 193 193 195 198 199 199 201 203 202 202 204 204 202 202 201 199 200 202 203 205 205 205 205 204 205 208 210 210 207 209 208 201 204 208 213 217 214 212 210 216 236 259 282 279 294 323 311 326 338 334 338 328 328 340 342 343 342 340 340 339 340 338 339 339 336
314 304 298 295 294 291 291 307 296 280 270 176 166 195 273 327 324 249 267 199 144 105 115 154 151 165 174 179 186 186 188 191 193 195 195 198 199 201 203 203 205 207 207 207 206 205 202 201 203 204 205 206 208 210 210 209 209 213 216 217 215 215 211 206 209 212 218 223 229 236 240 251 265 282 293 284 287 300 308 322 327 328 336 332 326 332 334 333 335 336 337 336 334 332 333 334 332
313 318 310 299 303 296 256 264 279 129 230 181 145 144 277 349 270 229 261 298 153 128 146 178 174 179 178 181 185 189 195 195 195 197 199 201 201 202 204 204 206 208 209 210 209 207 204 203 205 206 207 208 210 214 214 212 213 216 219 221 220 218 213 211 212 214 218 224 235 243 250 259 268 289 297 292 291 292 301 305 304 308 316 320 315 318 323 326 331 334 334 331 326 323 325 330 330
310 340 321 308 330 314 258 233 232 158 178 185 140 110 275 223 225 237 246 203 131 127 160 189 193 191 183 184 187 195 198 195 197 205 208 207 206 206 208 209 210 210 212 213 213 210 206 206 207 208 209 210 213 216 217 217 218 219 222 224 223 219 216 215 218 219 220 223 232 240 247 256 269 287 293 291 288 286 295 299 301 300 298 302 302 306 313 318 323 322 324 323 317 316 319 323 323
325 345 313 308 337 314 277 246 152 154 167 188 154 215 255 234 238 245 185 151 124 130 180 194 203 200 190 190 192 202 201 199 204 210 213 212 211 211 212 214 214 214 217 217 216 214 210 208 209 210 211 213 215 217 220 221 222 223 224 226 225 223 222 223 224 224 226 228 232 239 246 257 268 277 284 285 284 285 291 296 305 307 303 301 299 302 306 309 314 314 317 315 311 313 313 313 315
342 314 264 305 314 280 293 301 147 157 178 96 144 222 257 252 253 244 186 164 147 167 194 195 207 204 197 200 199 207 208 209 213 214 216 217 216 215 215 217 217 218 219 219 219 218 215 212 212 213 214 215 217 219 221 223 225 226 227 228 227 228 229 231 233 232 234 234 235 243 252 260 261 263 271 276 281 284 288 293 302 312 312 307 303 299 297 300 304 305 307 308 307 307 307 309 310
351 286 284 312 220 265 300 287 162 165 228 75 144 221 271 265 266 266 205 181 167 183 199 197 204 205 202 206 206 213 218 219 222 221 221 221 220 219 219 219 219 219 220 221 221 221 219 217 216 217 218 219 219 221 223 225 228 229 230 231 230 232 233 234 237 237 237 237 241 248 256 261 259 258 263 268 274 277 283 293 301 305 302 300 301 296 292 299 303 300 299 303 304 303 305 307 306
310 207 261 285 244 273 306 297 214 149 101 78 184 223 273 270 287 323 238 185 180 188 204 206 205 210 208 208 213 215 221 226 229 228 226 224 222 222 221 222 222 222 222 223 223 222 222 221 220 221 222 223 223 224 225 227 229 231 233 233 233 234 234 236 238 238 237 237 242 249 257 263 260 257 258 260 265 268 275 292 302 302 297 295 296 293 295 300 302 300 302 306 304 305 308 308 307
232 170 238 260 234 239 284 286 281 85 100 191 217 228 250 263 290 329 328 178 187 199 206 209 209 214 211 211 219 218 221 225 229 229 226 225 225 223 223 224 225 225 225 225 225 225 225 225 224 224 226 227 227 227 228 229 230 232 234 235 236 237 237 239 240 240 239 241 245 248 254 259 259 260 259 261 262 263 276 292 299 303 301 296 290 290 296 300 301 302 306 309 306 306 308 308 310
191 181 225 263 237 222 252 269 240 139 121 188 202 231 255 265 272 292 314 163 193 220 220 219 220 222 220 217 219 220 223 230 232 230 227 226 226 225 225 225 226 227 227 226 226 226 227 228 227 227 227 228 229 230 231 231 231 232 234 235 236 237 239 240 241 242 243 246 246 245 249 251 253 260 265 266 261 261 280 290 288 291 294 286 282 290 294 294 298 299 303 305 303 305 309 315 319
148 185 224 269 256 243 232 250 262 176 155 206 206 219 244 255 258 264 307 160 196 243 259 245 230 227 231 227 226 228 225 233 236 233 230 229 228 228 226 225 226 228 229 228 226 225 226 227 228 228 228 228 229 229 229 229 228 229 231 232 233 234 237 240 243 245 244 244 242 245 255 255 253 262 268 269 262 261 275 281 279 284 287 283 280 289 296 291 290 293 298 299 300 306 314 322 327
313 268 282 278 263 277 263 255 291 241 176 229 217 223 242 250 258 263 306 150 204 237 244 241 231 220 225 224 229 229 226 236 240 237 234 233 232 230 227 226 226 227 229 229 227 226 226 226 227 228 228 227 227 227 226 225 224 225 226 228 230 232 234 239 242 243 243 245 245 248 257 256 255 264 262 259 262 265 272 275 274 276 283 288 285 287 295 290 285 288 293 298 303 307 313 323 332
304 285 285 283 248 264 271 265 314 335 186 249 240 237 252 255 260 264 125 165 221 225 225 233 228 221 223 223 230 231 234 245 246 240 235 232 233 230 227 225 224 225 227 227 228 228 227 227 228 229 229 227 227 227 226 226 226 226 227 229 231 231 232 237 240 242 244 247 250 252 257 255 254 261 257 253 257 259 265 271 270 271 278 284 282 282 289 288 285 286 290 297 302 305 312 332 352
266 280 281 281 261 273 272 255 327 2 184 270 323 248 256 258 257 245 182 203 233 223 216 225 219 218 226 223 229 233 240 248 240 237 234 228 229 227 224 222 222 224 226 227 228 229 228 228 228 229 230 229 229 228 227 228 229 229 231 233 234 233 234 239 240 243 246 249 251 251 254 254 254 257 259 263 266 263 266 269 267 271 273 270 272 278 282 285 283 281 288 297 300 309 327 356 7
224 251 262 265 261 279 281 277 326 11 94 269 17 270 267 265 270 261 221 219 246 237 222 229 216 216 227 225 226 228 235 242 238 238 234 227 227 224 220 220 221 223 224 226 227 227 227 228 229 229 230 231 231 229 229 230 230 230 230 231 234 233 233 238 238 238 242 248 251 249 249 256 261 261 260 264 263 262 266 267 262 263 267 267 273 278 279 283 282 284 301 315 321 335 355 5 0
218 222 233 249 253 240 249 300 313 333 8 98 86 321 283 255 260 265 245 223 259 256 230 243 238 228 234 242 237 228 230 235 234 237 232 223 222 221 220 219 219 219 221 224 225 226 227 228 229 229 230 232 232 231 229 228 226 224 223 222 224 226 228 230 227 228 233 240 247 250 250 254 255 251 253 258 258 260 262 259 258 259 262 265 265 265 261 290 319 321 328 334 338 345 359 1 356
227 225 220 233 248 249 257 311 322 304 279 264 123 267 273 284 261 250 250 224 245 244 219 237 243 234 229 238 239 232 230 231 230 237 235 223 222 223 222 219 217 218 222 224 225 227 228 229 230 229 230 231 231 231 228 225 223 221 218 214 213 216 219 221 222 226 230 233 238 247 253 257 252 240 242 256 259 261 254 246 245 246 253 254 244 233 244 280 306 315 319 319 325 332 336 336 343
237 230 203 217 236 243 246 285 273 221 252 284 151 204 258 303 269 243 256 253 248 254 246 243 245 239 224 227 235 231 230 231 229 238 236 224 222 220 220 219 216 220 224 225 225 227 228 229 229 228 229 230 230 228 226 224 221 220 219 218 216 216 217 222 229 234 235 233 235 242 249 254 253 245 247 252 248 237 217 201 211 222 241 247 237 248 264 281 294 301 303 301 303 308 311 313 322
225 250 174 200 225 232 222 191 206 235 278 301 278 168 244 272 253 247 335 285 266 266 259 254 246 240 233 232 234 228 226 224 221 230 229 222 220 216 218 220 219 222 225 224 223 225 226 227 228 228 228 229 229 227 225 223 221 220 220 220 220 221 223 227 232 237 237 235 237 238 241 244 241 237 239 238 226 214 204 212 251 265 264 264 263 266 273 283 288 289 285 282 283 285 288 294 300
226 237 113 167 199 224 213 184 222 273 338 276 253 150 218 260 269 307 21 246 260 260 249 248 242 235 235 235 235 232 228 220 215 222 224 221 220 219 220 222 223 224 223 222 223 224 225 225 226 227 227 227 227 226 225 224 223 222 221 220 220 222 227 229 231 233 233 235 237 230 232 238 231 220 216 212 212 225 239 259 274 273 268 265 263 266 271 274 276 276 274 274 275 275 278 281 282
198 128 94 65 64 57 67 163 200 15 278 246 228 186 212 261 267 280 316 236 244 253 249 245 240 236 236 237 240 239 233 226 222 226 227 225 224 224 225 225 225 224 223 223 223 223 223 223 223 223 225 226 226 225 225 224 224 223 221 220 220 221 222 224 225 225 226 230 228 219 220 225 222 211 204 205 227 249 255 262 269 271 267 262 258 259 264 267 270 270 268 267 263 260 267 265 258
112 119 88 49 39 34 41 69 96 137 255 249 228 195 202 259 260 217 225 216 208 225 249 257 254 248 243 241 245 243 233 225 226 229 233 232 231 229 226 225 225 224 222 221 221 221 221 221 221 222 224 225 225 224 225 224 223 222 222 221 222 222 220 220 218 216 219 218 211 210 212 211 210 208 207 228 255 255 247 254 265 268 263 256 248 247 251 256 261 257 244 227 198 173 154 126 90
80 105 115 75 360 9 15 2 67 216 243 270 310 199 190 240 255 219 243 243 218 215 226 244 250 250 249 246 249 247 236 227 222 225 230 227 223 219 216 218 219 217 217 217 217 218 218 219 219 220 222 222 223 224 224 223 222 221 222 223 223 223 222 219 216 214 213 208 203 206 206 200 197 199 215 241 246 237 240 257 263 251 240 236 228 224 223 211 160 128 120 115 109 103 99 98 95
94 127 151 146 166 170 226 248 178 231 249 295 338 163 204 242 246 251 265 263 248 230 220 237 247 253 258 258 260 257 245 231 223 222 222 215 206 202 203 205 206 206 209 211 213 214 215 217 218 219 220 221 221 222 222 221 221 220 221 222 222 223 222 221 219 216 211 206 204 205 201 199 200 205 222 231 228 235 254 260 245 228 227 221 213 204 187 160 127 115 109 107 103 98 94 90 86
170 179 175 170 159 170 204 209 212 250 259 283 296 186 249 281 261 243 245 244 241 231 229 240 246 253 260 268 277 276 260 238 229 224 216 210 203 198 198 198 197 199 201 203 206 208 210 213 215 218 220 220 220 220 220 219 219 220 221 221 222 221 221 221 219 216 211 206 206 205 203 205 210 216 225 229 234 246 250 241 228 226 222 207 196 181 164 147 129 117 108 104 100 91 84 78 73
185 177 159 208 211 181 199 202 209 237 256 284 284 190 205 223 251 242 236 252 266 246 245 255 256 257 263 280 282 273 261 243 231 228 220 216 203 194 193 193 193 194 195 197 200 203 205 208 211 215 217 218 218 218 218 218 219 219 220 220 221 221 221 221 218 216 213 208 205 206 207 211 214 217 226 233 237 238 233 227 223 216 199 183 170 158 151 139 127 117 107 101 93 87 81 75 73
189 151 147 230 220 148 166 195 183 186 228 270 245 225 214 210 269 279 265 278 279 257 258 264 260 261 266 274 270 259 254 242 226 226 224 223 205 192 188 187 189 190 191 195 198 201 204 207 209 212 216 217 217 217 218 219 219 218 218 217 218 219 219 218 214 211 211 211 209 208 209 209 209 215 226 230 228 224 221 216 202 184 171 161 151 145 141 133 126 119 110 103 97 94 91 86 82
157 167 189 216 169 113 67 257 90 83 214 251 195 238 287 311 282 297 339 307 282 266 263 251 251 263 273 262 256 249 248 235 223 222 220 221 205 195 193 189 189 190 193 198 200 204 207 209 211 213 215 216 215 216 217 218 218 217 216 215 215 216 216 214 211 210 209 206 205 205 203 200 205 220 227 223 219 212 203 193 179 166 156 149 143 140 136 131 127 121 116 115 110 107 104 95 86
143 193 194 139 90 124 154 245 326 66 226 271 189 222 274 280 264 306 340 283 271 262 253 252 260 264 253 251 248 246 247 235 232 228 224 223 205 199 197 193 195 198 202 207 208 211 213 214 217 216 216 216 215 215 216 216 216 214 213 212 211 213 214 211 211 212 208 201 197 197 196 199 213 225 221 213 208 197 184 175 169 159 152 149 144 141 136 132 132 129 126 125 119 116 113 98 85
140 182 169 124 189 214 189 193 218 203 226 281 304 257 255 212 231 290 241 233 247 254 248 247 255 246 239 249 253 250 246 236 230 225 222 221 207 201 195 194 197 200 207 215 219 221 219 219 221 221 222 221 217 214 213 213 213 212 211 210 209 209 209 208 207 205 202 197 194 193 198 213 224 220 210 203 194 182 173 167 164 158 153 151 147 143 141 139 140 138 134 131 125 122 119 101 80
76 123 176 157 193 210 199 187 184 197 222 264 290 300 266 224 217 210 227 235 234 246 253 245 247 246 243 251 249 241 234 227 220 214 213 215 211 205 197 196 197 200 210 218 224 227 220 217 219 218 219 218 213 210 208 207 208 208 207 205 205 204 203 204 201 197 195 195 195 198 211 223 219 206 199 192 182 175 170 166 163 160 156 154 152 149 148 147 147 145 141 138 133 131 128 104 72
161 177 196 189 193 212 220 210 166 158 196 217 244 273 266 247 213 199 224 239 230 236 251 252 257 262 255 252 247 242 234 228 223 210 204 207 212 208 199 199 200 203 210 213 220 225 217 213 213 211 210 207 205 202 201 202 201 201 201 199 199 198 198 198 194 192 193 194 197 207 217 216 204 195 189 181 176 172 169 166 163 161 159 157 156 154 152 153 153 149 145 141 137 136 129 104 72
183 194 200 189 193 187 211 232 211 123 194 189 188 260 268 253 210 201 217 227 230 238 253 261 272 268 261 257 242 236 233 229 223 210 205 203 205 201 195 197 198 201 205 204 211 216 212 210 208 207 206 203 200 197 195 196 195 194 195 194 193 192 190 190 189 188 190 194 202 209 208 200 192 185 179 175 174 170 168 168 165 163 161 160 160 158 156 158 157 152 147 145 143 141 121 90 58
Height
808 808 808 808 808 809 811 812 827 837 837 850 855 852 847 844 846 843 842 841 841 841 840 841 839 839 843 843 844 846 848 849 853 860 860 852 850 852 853 853 853 852 852 852 853 854 856 857 858 859 860 860 861 861 862 862 863 863 863 864 864 865 865 865 866 866 866 866 866 867 867 867 867 868 868 868 868 868 868 868 868 868 868 869 869 869 869 870 870 870 870 870 870 870 870 870 870
808 808 808 808 808 809 815 817 834 847 843 853 856 852 847 845 845 840 841 840 840 842 841 841 840 842 844 842 842 845 848 849 849 851 851 850 852 853 854 853 854 853 853 854 854 855 856 857 858 859 860 861 862 862 863 863 864 864 864 865 865 865 866 866 867 867 867 867 867 868 868 868 869 869 869 869 869 869 869 869 869 869 870 870 870 871 871 871 871 871 871 871 871 871 871 871 872
808 809 808 809 809 810 817 820 837 852 850 854 851 848 847 844 841 838 839 839 840 841 841 840 839 842 843 844 843 845 849 849 848 848 849 851 852 853 854 854 854 855 855 855 855 856 857 858 859 859 860 861 862 863 863 864 864 865 865 866 866 866 867 867 868 868 868 868 868 869 869 870 870 870 870 870 870 870 870 870 870 871 871 871 871 872 872 872 873 873 872 873 873 872 873 873 873
808 808 809 809 812 813 821 829 841 848 852 859 852 843 844 840 838 838 838 838 841 841 840 840 841 843 843 844 845 847 850 848 847 847 849 851 852 852 854 855 855 855 856 856 856 857 858 858 859 860 861 862 862 863 864 864 865 866 866 867 867 867 868 868 869 869 869 869 870 870 870 871 871 871 871 871 871 871 871 871 871 872 872 872 872 873 873 874 874 874 874 874 874 874 874 874 874
808 809 809 808 815 818 827 841 848 846 846 853 847 840 841 838 837 839 839 840 842 841 840 841 843 844 843 845 846 848 849 848 847 847 848 850 851 852 854 855 855 856 856 857 858 858 859 860 860 861 862 862 863 864 864 865 866 866 867 867 868 868 869 869 870 870 870 870 871 871 871 872 872 872 872 872 872 872 873 873 873 873 873 873 874 874 874 875 875 875 875 875 875 875 875 875 875
808 809 809 808 816 819 829 842 846 845 840 841 839 836 837 837 838 838 840 841 841 841 841 840 841 843 846 846 845 846 846 847 847 847 848 849 851 852 854 855 856 857 857 858 859 859 860 861 862 862 863 863 864 865 865 866 867 867 868 868 868 869 869 870 870 871 871 871 872 872 873 873 873 873 873 873 874 874 874 874 874 874 875 875 875 875 876 876 876 876 876 876 876 876 876 876 877
808 810 812 813 819 822 832 842 843 843 840 840 837 833 833 835 839 839 840 842 840 841 840 841 839 841 847 847 846 845 844 845 845 846 848 849 851 852 853 855 856 857 858 859 859 860 861 862 863 863 864 865 865 866 867 867 868 868 868 869 869 870 870 871 871 872 872 873 873 874 874 874 874 874 874 875 875 875 876 876 876 876 876 876 876 876 877 877 877 877 877 877 877 877 877 877 878
808 812 817 820 828 833 839 843 844 845 843 843 840 835 834 834 838 838 840 841 840 841 840 841 840 842 847 848 848 846 843 845 845 846 848 849 851 852 853 855 856 857 858 859 860 861 862 863 864 865 865 866 867 867 868 868 869 869 870 870 870 871 871 872 873 873 874 874 875 875 875 875 876 876 876 876 876 877 877 877 877 877 877 877 877 877 878 878 878 879 879 878 878 878 878 879 879
808 813 820 823 833 840 843 845 845 845 843 841 840 837 835 837 839 838 839 840 839 841 841 842 840 841 847 848 848 845 844 845 845 847 848 849 851 852 854 855 856 856 858 859 860 861 862 863 864 865 866 867 868 868 869 869 870 870 871 871 871 872 872 873 874 874 875 875 876 876 876 876 877 877 877 877 878 878 878 878 878 878 878 878 879 879 879 879 880 880 880 880 879 880 880 880 880
811 816 822 827 836 843 845 846 844 843 841 839 838 835 835 838 839 838 838 839 840 840 841 842 840 842 846 849 849 845 845 845 845 847 848 850 851 852 854 855 856 856 858 859 861 862 863 864 865 866 867 868 869 869 870 870 871 871 871 872 872 873 874 874 875 875 876 876 877 877 877 877 877 878 878 878 879 879 879 879 879 879 880 880 880 880 880 880 880 881 881 881 881 881 881 881 881
817 820 823 832 840 844 844 843 840 840 840 838 837 834 835 838 837 839 839 839 842 841 841 841 841 845 848 851 850 845 845 846 845 847 848 850 851 853 854 855 856 857 858 859 861 862 863 865 865 866 867 868 869 870 870 871 871 872 872 873 873 874 874 875 875 876 877 877 878 878 878 878 878 879 879 879 880 880 880 880 880 881 881 881 881 881 881 881 881 881 881 882 882 882 882 882 882
820 826 825 834 842 843 846 844 840 839 839 838 834 832 835 837 836 838 838 838 841 841 840 839 839 842 849 852 849 846 846 846 846 847 848 850 851 853 854 855 856 858 858 859 861 862 864 865 866 867 868 869 870 870 871 872 872 873 873 873 874 874 875 875 876 876 877 878 878 878 878 879 879 880 880 880 880 881 881 881 881 881 882 882 881 881 882 882 882 882 882 882 883 883 883 883 883
821 829 826 835 847 846 848 847 843 842 839 835 832 832 834 835 835 835 836 838 840 841 838 837 838 838 848 853 847 846 846 846 847 847 848 850 851 853 854 855 856 858 859 860 861 863 864 865 866 867 868 869 870 871 871 872 873 873 873 874 874 875 875 876 876 877 877 878 878 879 879 880 880 880 881 881 881 881 881 882 882 882 882 882 882 882 882 882 883 883 883 883 884 884 884 884 884
821 828 825 838 855 850 846 845 843 843 837 832 830 833 834 832 833 834 835 838 840 839 835 836 837 837 846 852 848 847 845 845 847 848 849 850 852 853 854 855 856 858 859 860 861 863 864 865 867 868 869 870 870 871 872 873 873 873 874 874 874 875 875 876 877 877 878 878 878 879 880 880 881 881 881 882 882 882 882 883 883 883 883 883 883 883 883 883 884 884 884 884 885 885 885 885 885
822 828 829 839 852 848 846 845 844 843 835 830 831 832 832 832 833 834 834 835 837 837 835 836 836 836 842 845 844 843 843 844 847 848 850 850 852 853 854 856 856 858 859 860 862 863 865 866 867 868 869 870 871 872 872 873 873 874 874 874 874 875 875 876 877 877 878 879 879 880 880 881 881 882 882 882 883 883 883 883 884 884 884 884 884 884 884 884 885 885 885 885 885 885 886 886 886
822 825 831 838 846 847 845 847 847 845 835 829 832 832 831 832 833 834 833 833 836 837 836 837 836 835 838 838 838 838 841 844 846 848 850 851 853 854 855 855 856 857 859 860 862 863 865 866 867 868 869 870 871 872 872 873 873 874 874 874 874 875 876 876 877 877 878 878 879 880 880 881 882 882 883 883 883 884 884 884 884 884 885 885 885 885 885 885 885 886 886 886 886 886 886 886 886
822 825 833 838 846 846 842 844 843 837 830 829 833 831 829 832 833 833 833 834 835 837 837 837 836 836 836 837 836 837 841 843 846 848 850 851 852 853 855 855 855 856 858 860 861 863 864 866 867 868 869 870 871 871 872 872 873 873 874 874 874 875 875 876 877 877 878 878 879 880 880 881 882 882 883 883 884 884 885 885 885 885 886 886 886 886 886 886 886 886 887 887 887 887 887 887 887
824 831 838 840 844 841 834 835 834 830 827 826 829 829 828 830 833 833 833 835 837 839 839 837 836 836 836 836 836 838 841 843 845 847 849 850 851 852 854 855 855 855 856 859 860 862 864 865 867 868 869 870 871 871 872 872 873 873 874 874 874 875 875 876 877 877 878 878 879 880 881 881 882 883 883 884 884 885 885 886 886 886 886 886 886 886 887 887 887 887 887 887 887 887 887 887 887
829 837 840 839 838 833 828 827 828 828 825 824 828 829 829 828 830 832 833 837 839 840 839 838 837 836 836 837 837 839 841 843 844 847 848 849 850 851 853 854 854 854 855 857 859 861 863 865 866 867 868 869 870 871 871 872 873 873 874 874 874 875 876 876 877 877 878 878 879 880 881 882 882 883 884 884 885 885 886 886 886 887 887 887 887 887 887 888 888 888 888 888 888 888 888 887 887
833 838 839 835 832 829 828 827 825 826 824 824 827 830 831 828 829 831 832 838 841 838 836 837 836 835 836 838 838 840 842 844 844 846 848 849 849 850 852 853 853 853 854 855 858 860 862 864 865 867 868 869 870 870 871 872 872 873 874 874 875 875 876 876 877 877 878 878 879 880 881 882 882 883 884 884 885 886 886 887 887 887 887 887 888 888 888 888 888 888 888 888 888 888 888 888 888
835 837 835 832 832 830 825 827 827 826 827 825 827 831 831 828 829 830 832 837 840 835 830 829 829 831 835 837 838 840 842 843 844 845 847 849 849 850 851 852 854 854 854 855 857 859 861 863 864 866 867 868 869 870 871 872 872 873 874 874 875 876 876 877 877 878 878 879 880 880 881 882 883 883 884 885 885 886 886 887 887 887 887 888 888 888 888 888 888 888 888 888 888 888 888 888 887
837 834 831 832 834 831 824 827 829 828 829 827 828 829 826 827 829 829 830 831 831 828 824 824 825 827 831 834 836 839 841 843 843 844 846 848 849 850 851 852 854 855 854 854 856 858 860 862 864 865 866 868 869 870 871 871 872 873 874 874 875 876 876 877 878 878 879 880 880 881 882 882 883 883 884 885 885 886 886 886 887 887 888 888 888 888 888 888 888 888 888 888 888 888 888 888 887
839 835 830 831 832 831 826 826 828 829 828 827 828 826 825 827 826 828 828 824 822 823 823 823 825 827 828 831 834 836 839 841 841 843 844 846 848 849 850 851 853 853 854 854 855 857 859 861 863 864 866 867 868 869 870 871 872 873 874 874 875 876 876 877 878 878 879 880 881 881 882 882 883 884 884 885 885 886 886 886 887 887 887 888 888 888 888 888 888 888 888 888 888 888 887 887 887
840 837 832 832 831 830 827 827 828 828 826 825 827 826 825 825 825 830 827 820 821 824 823 823 824 827 829 831 833 834 836 839 840 842 843 845 846 848 849 850 851 852 853 853 854 856 857 859 861 863 865 866 868 869 870 871 872 873 874 874 875 876 876 877 878 879 880 880 881 881 882 882 883 884 884 885 885 885 886 886 887 887 887 888 888 888 888 888 888 888 888 888 888 887 887 887 887
841 840 837 835 832 829 827 828 827 826 826 826 827 825 825 826 827 828 823 820 822 823 823 824 824 827 830 831 832 834 836 838 840 842 843 844 845 847 849 850 851 852 852 853 854 855 856 858 860 862 864 866 867 868 869 871 872 873 873 874 875 876 877 878 878 879 880 880 881 881 882 883 883 884 884 885 885 886 886 887 887 887 887 888 888 888 888 888 888 888 888 887 887 887 887 886 886
845 843 841 838 833 829 828 826 825 826 827 826 826 826 827 829 830 824 817 819 823 824 825 825 826 827 830 831 833 834 835 837 840 841 842 844 845 847 848 849 850 851 851 852 853 854 856 857 859 861 863 865 866 868 869 870 871 872 873 874 875 876 877 878 879 879 880 880 881 882 882 883 883 884 885 885 886 886 887 887 887 887 888 888 888 888 888 888 888 888 887 887 887 886 886 886 886
843 841 839 836 833 829 827 825 824 826 826 826 825 828 829 829 830 822 816 821 823 824 827 827 827 828 829 831 833 834 834 836 838 841 842 843 844 844 846 847 848 849 851 852 853 854 855 857 858 860 862 864 866 867 868 870 871 872 873 874 875 876 877 878 879 879 880 881 881 882 883 883 884 884 885 885 886 886 887 887 887 887 888 888 888 888 888 887 887 887 887 887 886 886 886 885 885
841 839 836 832 830 828 826 825 825 824 825 826 825 827 829 829 828 820 818 825 824 823 828 829 828 828 829 830 832 834 834 836 838 840 840 840 841 842 844 845 847 849 850 851 852 854 855 856 858 860 862 863 865 866 868 869 870 872 873 874 875 876 877 878 879 879 880 881 882 882 883 883 884 884 885 885 886 886 887 887 887 887 887 887 887 887 887 887 887 887 887 886 886 885 885 885 884
839 839 838 833 829 826 822 822 825 823 823 825 825 829 831 828 823 817 821 827 825 825 828 830 830 829 830 830 832 833 834 836 837 837 837 838 840 842 843 844 846 848 849 850 852 853 854 856 858 859 861 863 864 865 867 868 870 871 872 873 875 876 877 878 878 879 880 881 881 882 883 883 884 884 885 885 885 886 886 886 887 887 887 887 887 887 887 886 886 886 886 886 885 884 884 884 883
839 840 842 839 835 829 822 823 825 823 824 824 826 834 831 823 817 817 823 827 825 826 829 831 831 830 831 831 832 833 834 835 834 835 836 838 840 841 842 844 846 847 848 850 851 853 854 856 857 858 860 862 863 865 866 868 869 871 872 873 874 875 876 877 878 879 880 881 881 882 882 883 883 884 884 885 885 885 885 886 886 886 886 886 886 886 886 886 886 885 885 885 884 883 883 882 882
845 843 843 845 844 833 823 825 825 822 826 824 827 835 827 817 815 818 824 825 823 823 827 831 831 830 831 831 832 832 832 832 832 834 836 837 839 840 842 843 845 846 847 849 850 852 853 855 856 857 859 860 862 863 865 867 868 870 871 872 873 874 875 876 877 878 879 880 881 881 882 882 883 883 884 884 884 885 885 885 885 885 885 885 885 885 885 885 885 884 884 883 883 882 882 881 881
850 849 847 848 849 836 823 824 824 822 825 824 827 834 827 816 813 818 825 826 823 822 825 830 830 830 831 830 832 831 831 832 832 834 835 836 837 838 840 841 843 845 846 847 849 851 852 853 854 855 857 858 860 862 863 865 867 869 870 871 872 873 874 875 876 877 878 879 879 880 881 881 882 882 883 883 884 884 884 884 884 885 885 884 884 884 884 884 883 883 882 882 881 881 880 880 879
852 854 851 848 847 841 828 824 825 823 824 825 826 830 825 815 814 820 826 826 824 822 825 829 829 829 830 830 830 830 831 831 832 832 832 834 835 836 838 840 841 843 844 846 847 849 850 852 853 854 855 856 858 860 862 864 865 867 868 870 871 872 873 873 874 875 876 877 878 879 880 880 881 881 882 882 882 883 883 884 883 883 883 883 883 883 882 882 882 881 881 881 880 880 879 878 878
854 856 854 849 846 844 835 825 824 825 825 825 826 828 822 813 814 821 825 827 826 823 823 827 829 829 829 829 829 830 830 830 829 828 829 831 833 835 836 838 840 841 843 844 846 847 848 850 851 852 853 855 857 859 860 862 864 866 867 868 869 870 871 872 873 874 875 876 877 878 879 879 880 880 881 881 881 882 882 882 883 882 882 882 882 881 881 881 880 880 880 880 879 879 878 877 877
854 856 853 849 843 842 839 828 824 825 825 825 827 829 825 815 813 818 823 828 827 824 824 827 828 828 828 828 829 829 829 828 825 824 826 829 830 832 834 835 838 839 841 843 844 845 847 848 849 851 852 853 855 857 859 861 862 864 865 866 867 868 870 871 872 873 874 875 875 876 877 878 879 879 880 880 880 881 881 881 881 881 881 881 880 880 880 880 879 879 879 879 878 878 877 877 876
852 853 851 850 843 839 836 828 826 827 825 826 827 827 824 816 813 815 821 827 827 827 827 826 827 828 828 829 828 827 828 825 820 821 824 827 828 830 831 833 835 837 839 841 842 843 845 846 847 848 850 851 853 855 856 858 860 861 863 864 865 866 868 870 871 872 873 873 874 875 875 876 877 878 878 879 879 879 880 880 880 880 879 879 879 879 879 879 879 878 878 878 877 877 876 876 875
853 855 854 852 848 843 832 825 827 828 826 825 824 825 822 817 814 814 821 826 826 826 825 824 824 826 827 827 826 825 825 820 817 821 823 824 826 827 829 831 832 834 836 838 839 840 842 843 844 845 847 849 850 852 853 855 857 858 860 861 862 864 866 868 869 870 872 872 873 874 874 875 875 876 876 877 877 878 878 878 878 878 878 878 878 878 878 878 877 877 877 876 876 875 875 874 874
854 856 855 852 850 844 833 828 830 829 828 825 824 827 824 818 815 816 821 823 821 820 820 820 821 823 824 824 824 822 821 818 818 820 820 821 823 824 826 827 829 830 832 834 836 837 839 840 841 843 845 847 847 849 851 852 854 856 858 859 861 863 864 866 868 869 870 871 872 873 873 874 874 874 875 875 875 876 876 876 876 876 876 876 876 876 876 876 876 876 875 875 874 874 874 873 873
853 856 856 853 847 841 833 829 830 830 828 826 826 827 822 816 813 815 819 817 814 815 815 815 816 819 820 820 819 820 819 818 818 817 817 818 819 821 823 824 825 826 828 831 833 834 836 837 838 840 842 844 845 847 848 850 852 854 856 858 860 861 862 864 866 867 869 870 871 872 872 872 872 872 873 874 874 874 874 874 874 875 875 875 874 874 874 874 874 874 874 873 873 873 873 873 872
852 856 858 854 846 841 835 829 830 831 830 829 828 826 820 814 813 812 813 813 810 811 813 813 815 814 813 814 816 817 817 815 816 815 814 815 817 818 819 820 821 823 825 827 829 831 833 834 835 837 839 841 843 844 846 848 851 853 855 857 858 860 861 862 863 865 867 868 869 870 870 871 871 871 872 872 872 872 873 873 873 873 873 873 873 873 873 873 872 872 872 872 872 872 872 872 872
850 852 855 851 844 840 837 833 832 831 833 832 829 829 820 810 812 809 806 812 812 809 811 811 812 811 810 812 813 812 812 812 812 811 811 812 813 814 815 815 817 819 821 822 825 827 829 831 832 834 836 838 840 842 844 846 849 851 853 855 857 858 859 860 861 863 864 866 867 868 869 869 869 870 870 871 870 871 871 871 871 871 872 872 872 872 872 872 872 871 872 872 872 872 872 872 872
848 847 846 846 842 838 836 836 835 833 833 831 830 836 825 809 810 807 803 809 809 807 810 807 806 808 811 811 808 807 808 808 809 808 808 809 810 811 812 812 814 814 816 818 821 824 826 828 830 832 834 835 837 839 842 844 846 848 850 852 854 855 857 858 859 861 862 864 865 866 867 867 868 868 869 869 869 869 869 869 870 870 870 871 871 871 871 871 871 871 871 872 872 872 871 872 872
850 842 837 840 839 838 836 836 837 836 835 833 834 836 830 815 804 801 805 809 806 806 807 805 804 805 806 805 802 802 803 803 805 806 806 807 807 808 808 808 809 809 811 815 818 821 823 825 828 830 831 833 835 837 839 841 843 845 847 848 850 852 854 856 858 859 861 862 863 864 865 866 866 867 867 868 867 867 868 868 869 869 869 870 870 871 871 870 870 871 871 871 871 871 871 871 870
848 837 833 836 837 838 837 836 838 837 835 835 835 834 834 823 804 801 812 810 804 806 804 802 802 801 801 799 797 798 798 798 801 802 803 803 803 804 804 804 804 805 808 812 814 817 819 822 825 827 828 830 832 834 836 838 840 842 844 846 848 849 851 853 855 857 858 860 861 862 863 864 865 865 866 866 866 866 867 867 868 868 869 870 870 870 870 870 869 870 870 870 870 870 870 870 870
839 834 834 836 838 839 837 838 839 839 838 834 833 835 836 824 806 806 814 806 799 800 798 796 795 795 794 793 792 792 793 794 796 797 798 799 799 799 800 800 801 803 806 808 811 813 816 819 822 824 825 827 829 831 833 835 837 839 841 843 845 847 849 851 853 855 856 858 859 860 861 862 863 863 864 865 865 865 866 866 867 867 868 869 869 869 869 869 868 868 868 868 868 868 868 868 869
831 832 834 835 839 841 842 843 840 841 844 834 828 832 833 821 804 803 810 804 798 795 791 790 788 789 789 788 788 789 791 793 794 794 795 795 796 797 798 799 800 802 804 806 809 811 814 816 819 821 822 824 826 828 830 832 834 836 838 840 842 845 847 849 851 852 854 856 857 858 859 861 862 862 863 864 864 865 865 865 865 866 867 867 867 868 868 867 867 867 867 867 867 867 867 867 868
829 831 832 835 839 840 844 844 840 845 844 830 825 828 830 823 804 797 800 795 791 789 787 786 784 784 785 785 786 786 788 791 792 793 793 793 795 795 797 798 799 800 802 804 807 809 811 813 815 817 819 821 823 825 827 829 831 833 835 838 840 842 844 846 848 850 852 853 855 856 858 859 860 861 862 862 863 864 864 864 864 864 865 865 866 867 867 867 866 866 866 866 866 867 867 867 868
832 832 834 841 846 844 846 845 846 851 840 830 837 838 834 826 805 793 792 787 785 786 783 780 778 779 781 783 785 786 787 788 789 791 790 791 792 793 794 795 797 799 800 802 804 806 808 810 813 814 816 818 820 822 824 826 828 830 833 835 837 839 841 843 844 846 849 851 852 854 856 857 858 859 860 861 862 863 863 863 863 863 864 864 865 866 866 866 866 866 866 866 866 867 867 868 868
836 837 840 851 855 855 855 851 850 850 838 837 846 841 830 819 801 790 789 787 785 785 783 779 776 777 778 780 783 786 787 787 787 788 788 789 789 790 791 792 794 796 797 800 802 804 806 808 810 812 813 815 817 819 821 823 825 828 830 833 835 837 839 840 842 844 846 848 850 852 854 855 856 857 858 860 861 862 862 862 862 862 863 864 864 865 866 866 866 866 866 867 867 868 868 868 869
838 840 845 852 856 858 858 853 851 845 837 840 845 838 825 810 795 786 782 779 779 783 784 783 782 781 779 780 784 786 786 786 786 785 786 787 786 787 788 789 791 793 795 797 799 801 804 805 807 809 810 813 815 816 819 820 822 825 827 830 832 834 836 838 840 841 843 845 847 849 852 853 854 856 857 859 860 860 861 861 861 861 862 863 863 864 865 866 866 866 867 867 867 868 869 869 869
836 834 839 845 844 845 847 845 841 835 834 841 842 832 817 800 789 784 782 780 781 784 786 787 788 787 786 786 786 785 784 784 785 785 785 785 784 785 786 788 789 791 793 795 797 799 801 803 805 806 808 810 812 814 815 818 820 822 825 827 829 831 834 836 837 839 841 843 845 847 850 851 853 854 855 857 858 859 860 860 860 861 861 862 863 864 864 865 866 866 867 867 868 868 869 869 870
834 830 835 839 833 829 837 841 838 834 832 836 835 823 807 795 785 782 785 784 779 781 783 785 785 785 787 785 780 780 781 782 784 784 784 784 784 785 785 787 788 790 792 793 795 797 799 801 802 804 805 807 809 811 812 815 817 819 822 824 826 828 831 833 835 837 839 841 843 845 848 850 851 853 854 855 857 858 858 859 860 860 861 861 862 863 864 864 865 866 866 867 868 868 869 869 870
829 832 831 829 825 823 833 843 846 843 833 826 825 814 802 796 785 776 779 778 773 774 777 777 777 780 784 778 773 777 780 781 783 783 784 784 784 784 785 786 788 789 791 792 794 796 797 799 800 801 803 804 806 808 810 812 814 816 819 821 823 826 828 830 832 835 837 839 841 843 846 848 849 851 852 854 855 856 857 858 859 860 860 861 862 862 863 864 864 865 866 867 867 868 869 869 869
821 829 824 822 827 826 829 836 839 841 833 823 822 814 801 800 791 776 774 772 768 768 768 770 773 778 777 771 771 778 779 780 782 782 783 783 783 784 784 785 787 788 790 791 792 794 795 797 798 799 801 802 804 806 807 810 811 813 816 818 820 823 825 828 830 833 835 837 839 842 844 846 848 849 851 852 853 854 856 857 858 859 860 861 861 862 862 863 864 864 865 866 867 867 868 868 869
813 817 815 819 829 829 829 833 832 833 830 819 819 820 810 803 792 777 772 770 764 763 764 766 768 768 769 768 772 777 777 779 780 779 782 782 782 783 783 785 786 787 789 790 791 793 794 795 796 797 799 800 802 803 805 807 809 811 813 816 818 821 823 826 828 830 833 835 838 840 842 844 846 848 849 850 852 853 855 856 857 858 859 860 861 861 862 862 863 864 864 865 866 867 867 868 868
814 815 814 815 819 820 822 824 822 824 824 817 814 815 807 798 788 774 768 768 763 759 760 762 763 764 767 770 771 773 775 776 777 778 780 781 782 782 783 784 785 786 788 789 790 791 792 794 795 796 797 799 800 801 803 805 807 809 811 814 816 819 821 824 826 828 831 834 836 838 841 843 844 846 848 849 850 852 853 855 856 857 858 859 860 861 861 862 863 863 864 865 865 866 867 867 867
814 815 817 816 814 814 814 814 814 815 817 815 814 810 796 785 780 771 762 761 759 758 760 761 763 765 768 771 772 773 775 775 776 778 779 780 781 781 783 784 785 786 787 788 789 791 792 793 794 796 796 798 799 800 802 803 805 807 809 812 814 816 819 822 824 827 829 832 834 836 839 841 843 845 846 847 849 851 853 854 855 857 858 859 859 860 861 861 862 863 863 864 865 865 866 866 866
806 809 812 812 811 814 818 818 815 811 812 813 812 809 790 771 771 769 760 755 757 763 766 763 764 765 767 770 772 773 775 775 776 778 778 780 780 781 782 783 784 785 786 788 789 790 792 793 794 795 796 797 798 799 801 802 804 806 808 810 812 815 817 820 823 825 827 830 832 835 837 839 841 843 845 847 848 850 852 853 855 856 857 858 859 860 861 861 862 863 863 864 864 865 865 865 865